x

Norfolk, Va (44059) Weather Station

4:50pm - Wed 17th Sep 2014 All times are EDT. -4 hours from GMT.

  • Wind
    9mph, 13mph gusts
  • Air Temp 73°f
  • Sea Pressure 1012.9mb
  • Norfolk, Va
  • Norfolk, Va

More Historic Weather Station data

Upgrade to MSW Pro to gain access to the past 30 days of data for over 8000 Wavebouys and Weather Stations around the globe.

Join Pro

Comparision Forecast

View Surf forecast
   
Wed 09/17 4:50pm 9 13 mph 1012.9mb - 73f
4:40pm 9 13 mph 1012.9mb - 74f
4:30pm 9 11 mph 1013mb - 73f
4:20pm 9 13 mph 1012.9mb - 73f
4:10pm 9 13 mph 1012.9mb - 73f
4:00pm 9 13 mph 1013mb 78f 73f
3:50pm 9 16 mph 1013.1mb - 73f
3:40pm 7 13 mph 1013.1mb - 73f
3:30pm 9 16 mph 1013.1mb - 73f
3:20pm 9 13 mph 1013.3mb - 73f
3:10pm 9 16 mph 1013.4mb - 73f
3:00pm 11 18 mph 1013.5mb 78f 73f
2:50pm 9 13 mph 1013.6mb - 73f
2:40pm 11 13 mph 1013.8mb - 73f
2:30pm 9 13 mph 1013.9mb - 73f
2:20pm 9 13 mph 1013.9mb - 73f
2:10pm 11 16 mph 1014mb - 73f
2:00pm 11 16 mph 1014.2mb 78f 73f
1:40pm 9 13 mph 1014.3mb - 73f
1:20pm 9 18 mph 1014.6mb - 73f
1:10pm 9 18 mph 1014.7mb - 73f
1:00pm 9 16 mph 1014.8mb 78f 73f
12:50pm 11 13 mph 1014.8mb - 73f
12:40pm 11 18 mph 1014.8mb - 73f
12:30pm 9 16 mph 1014.8mb - 73f
12:20pm 9 16 mph 1014.9mb - 73f
12:10pm 9 16 mph 1015mb - 73f
12:00pm 9 13 mph 1015.2mb 78f 72f
11:50am 9 13 mph 1015.2mb - 72f
11:40am 9 16 mph 1015.3mb - 72f
11:30am 9 16 mph 1015.3mb - 72f
11:20am 11 16 mph 1015.4mb - 72f
11:10am 9 16 mph 1015.4mb - 72f
11:00am 9 13 mph 1015.2mb 78f 73f
10:50am 9 16 mph 1015.1mb - 72f
10:40am 9 16 mph 1015.2mb - 72f
10:30am 9 16 mph 1015.3mb - 72f
10:20am 13 20 mph 1015.2mb - 72f
10:10am 9 13 mph 1015.2mb - 72f
10:00am 9 13 mph 1015.1mb 78f 72f
9:50am 7 11 mph 1015.1mb - 71f
9:40am 7 13 mph 1015mb - 71f
9:30am 9 11 mph 1015mb - 70f
9:20am 7 11 mph 1015.1mb - 71f
9:10am 7 11 mph 1015mb - 71f
9:00am 4 9 mph 1014.9mb 77f 71f
8:50am 7 9 mph 1014.9mb - 70f
8:40am 7 11 mph 1014.8mb - 70f
8:30am 9 11 mph 1014.8mb - 71f
8:20am 7 9 mph 1014.8mb - 71f
8:10am 7 9 mph 1014.7mb - 71f
8:00am 4 9 mph 1014.8mb 78f 71f
7:50am 4 7 mph 1014.8mb - 71f
7:40am 4 7 mph 1014.7mb - 71f
7:30am 4 9 mph 1014.6mb - 71f
7:20am 4 7 mph 1014.5mb - 71f
7:10am 4 7 mph 1014.4mb - 71f
7:00am 4 7 mph 1014.2mb 77f 71f
6:50am 4 9 mph 1014mb - 71f
6:40am 7 11 mph 1014.1mb - 71f
6:30am 4 9 mph 1014.2mb - 71f
6:20am 4 9 mph 1014.2mb - 71f
6:10am 7 11 mph 1014.2mb - 71f
6:00am 7 9 mph 1014.1mb 77f 71f
5:50am 7 9 mph 1014.1mb - 71f
5:40am 4 9 mph 1014mb - 71f
5:30am 7 9 mph 1013.9mb - 71f
5:20am 7 9 mph 1013.9mb - 71f
5:10am 7 9 mph 1013.8mb - 71f
5:00am 7 11 mph 1013.8mb 77f 71f
4:50am 9 13 mph 1013.9mb - 71f
4:40am 7 11 mph 1014mb - 71f
4:30am 7 11 mph 1013.8mb - 71f
4:20am 7 11 mph 1013.8mb - 71f
4:10am 7 11 mph 1013.8mb - 71f
4:00am 4 9 mph 1013.8mb 78f 71f
3:50am 9 13 mph 1013.8mb - 71f
3:40am 9 13 mph 1013.9mb - 71f
3:30am 7 11 mph 1014.1mb - 71f
3:20am 7 11 mph 1014mb - 71f
3:10am 4 9 mph 1014mb - 71f
3:00am 7 9 mph 1014.1mb 78f 71f
2:50am 7 11 mph 1014.2mb - 71f
2:40am 7 11 mph 1014.4mb - 71f
2:30am 7 9 mph 1014.3mb - 71f
2:20am 7 11 mph 1014.3mb - 71f
2:10am 7 9 mph 1014.2mb - 71f
2:00am 7 11 mph 1014.2mb 78f 71f
1:50am 7 9 mph 1014.2mb - 71f
1:40am 7 11 mph 1014.2mb - 71f
1:30am 7 11 mph 1014.3mb - 72f
1:20am 9 13 mph 1014.4mb - 72f
1:10am 9 13 mph 1014.5mb - 72f
1:00am 9 11 mph 1014.6mb 78f 72f
12:50am 9 13 mph 1014.6mb - 72f
12:40am 7 11 mph 1014.8mb - 72f
12:30am 9 11 mph 1014.9mb - 72f
12:20am 9 16 mph 1014.8mb - 72f
12:10am 9 11 mph 1014.5mb - 73f
12:00am 9 13 mph 1014.5mb 78f 73f
Tue 09/16 11:50pm 9 13 mph 1014.6mb - 73f
11:40pm 7
mph
1014.7mb - 73f
11:30pm 4 9 mph 1014.7mb - 73f
11:20pm 4 7 mph 1014.7mb - 73f
11:10pm 7 9 mph 1014.7mb - 73f
11:00pm 7 9 mph 1014.8mb 78f 73f
10:50pm 7 9 mph 1014.8mb - 73f
10:40pm 4 9 mph 1014.8mb - 73f
10:30pm 4 11 mph 1014.6mb - 73f
10:20pm 4 7 mph 1014.4mb - 73f
10:10pm 7 13 mph 1014.2mb - 73f
10:00pm 7 11 mph 1014.2mb 78f 73f
9:50pm 9 11 mph 1014.2mb - 73f
9:40pm 9 11 mph 1014.2mb - 74f
9:30pm 7 11 mph 1014mb - 74f
9:20pm 7 11 mph 1014mb - 74f
9:10pm 9 13 mph 1014mb - 74f
9:00pm 7 11 mph 1014mb 78f 74f
8:50pm 7 11 mph 1014mb - 74f
8:40pm 9 13 mph 1013.8mb - 74f
8:30pm 7 11 mph 1013.8mb - 74f
8:20pm 7 9 mph 1013.8mb - 74f
8:10pm 7 9 mph 1013.8mb - 74f
8:00pm 7 9 mph 1013.7mb 79f 74f
7:50pm 7 9 mph 1013.5mb - 74f
7:40pm 7 9 mph 1013.5mb - 74f
7:30pm 7 9 mph 1013.4mb - 74f
7:20pm 7 11 mph 1013.3mb - 74f
7:10pm 9 11 mph 1013.4mb - 75f
7:00pm 9 13 mph 1013.3mb 79f 76f
6:50pm 7 11 mph 1013.2mb - 77f
6:40pm 4 7 mph 1013.2mb - 78f
6:30pm  -  7 mph 1013.2mb - 81f
6:20pm 2 4 mph 1013.1mb - 79f
6:10pm 2 4 mph 1013.1mb - 79f
6:00pm 4 7 mph 1013.1mb 80f 79f
5:50pm 2 4 mph 1013.1mb - 80f
5:40pm  -  2 mph 1013.2mb - 80f
5:30pm 2 4 mph 1013.3mb - 79f
5:20pm  -  2 mph 1013.3mb - 78f
5:10pm 2 4 mph 1013.4mb - 78f
5:00pm 2 4 mph 1013.4mb 80f 78f
4:50pm 2
mph
1013.5mb - 78f
4:40pm 2 4 mph 1013.5mb - 77f
4:30pm 4
mph
1013.5mb - 77f
4:20pm 4
mph
1013.6mb - 77f
4:10pm 2 4 mph 1013.7mb - 78f
4:00pm 4 7 mph 1013.8mb 80f 78f
3:50pm 4 7 mph 1013.8mb - 78f
3:40pm 4 7 mph 1013.8mb - 78f
3:30pm 4 7 mph 1013.8mb - 77f
3:20pm 4 7 mph 1013.8mb - 78f
3:10pm 4 7 mph 1013.8mb - 78f
3:00pm 2 4 mph 1013.9mb 80f 78f
2:50pm 4 7 mph 1013.9mb - 77f
2:40pm 4 9 mph 1014mb - 77f
2:30pm 7 9 mph 1014mb - 77f
2:20pm 4 7 mph 1014mb - 77f
2:10pm 7 9 mph 1014.1mb - 77f
2:00pm 4 7 mph 1014.2mb 80f 76f
1:50pm 4 7 mph 1014.3mb - 76f
1:40pm 4 7 mph 1014.4mb - 76f
1:30pm 4 9 mph 1014.5mb - 76f
1:20pm 4 7 mph 1014.4mb - 76f
1:10pm 4 7 mph 1014.5mb - 76f
1:00pm 4 9 mph 1014.6mb 80f 75f
12:50pm 4 9 mph 1014.6mb - 75f
12:40pm 4 7 mph 1014.7mb - 75f
12:30pm 4 7 mph 1014.9mb - 75f
12:20pm 4 9 mph 1015mb - 74f
12:10pm 4 9 mph 1015.1mb - 74f
12:00pm 4 9 mph 1015.2mb 79f 74f
11:50am 4 7 mph 1015.3mb - 73f
11:40am 4 9 mph 1015.4mb - 73f
11:30am 4 9 mph 1015.5mb - 73f
11:20am 4 7 mph 1015.6mb - 72f
11:10am 4 9 mph 1015.7mb - 72f
11:00am 4 7 mph 1015.7mb 78f 72f
10:50am 4 9 mph 1015.9mb - 72f
10:40am 7 9 mph 1016mb - 72f
10:30am 7 11 mph 1016.1mb - 72f
10:20am 9 11 mph 1016.1mb - 72f
10:10am 7 11 mph 1016mb - 72f
10:00am 7 11 mph 1016.1mb 78f 72f
9:50am 9 11 mph 1016mb - 72f
9:40am 7 13 mph 1016mb - 72f
9:30am 7 11 mph 1016mb - 72f
9:20am 4 9 mph 1016mb - 71f
9:10am 7 13 mph 1016mb - 71f
9:00am 7 11 mph 1016mb 77f 70f
8:50am 7 11 mph 1016.1mb - 69f
8:40am 4 9 mph 1016.1mb - 69f
8:30am 4 7 mph 1016.1mb - 68f
8:20am 4 9 mph 1016mb - 68f
8:10am 4 7 mph 1016mb - 68f
8:00am 4 7 mph 1016mb 77f 68f
7:50am 4 7 mph 1016mb - 68f
7:40am 4
mph
1016.1mb - 68f
7:30am 4 7 mph 1016.1mb - 67f
7:20am 4 7 mph 1016mb - 67f
7:10am 4 7 mph 1015.9mb - 68f
7:00am 4 7 mph 1015.8mb 77f 67f
6:50am 7 9 mph 1015.8mb - 67f
6:40am 7 9 mph 1015.8mb - 68f
6:30am 7 9 mph 1015.8mb - 68f
6:20am 7 9 mph 1015.9mb - 68f
6:10am 7 11 mph 1015.8mb - 68f
6:00am 7 11 mph 1015.6mb 77f 68f
5:50am 7 11 mph 1015.8mb - 68f
5:40am 7 9 mph 1015.8mb - 68f
5:30am 7
mph
1015.9mb - 68f
5:20am 4 7 mph 1015.9mb - 68f
5:10am 4 9 mph 1015.9mb - 68f
5:00am 4 9 mph 1015.9mb 78f 68f
4:50am 4 9 mph 1015.9mb - 68f
4:40am 4 9 mph 1015.8mb - 67f
4:30am 7 9 mph 1016mb - 67f
4:20am 4 7 mph 1016mb - 67f
4:10am 4 9 mph 1016mb - 67f
4:00am 4 7 mph 1016.1mb 78f 67f
3:50am 4 7 mph 1016.3mb - 67f
3:40am 4 9 mph 1016.3mb - 67f
3:30am 7 9 mph 1016.2mb - 67f
3:20am 4 9 mph 1016.3mb - 67f
3:10am 7 11 mph 1016.3mb - 68f
3:00am 7 11 mph 1016.2mb 77f 68f
2:50am 7 11 mph 1016.3mb - 68f
2:40am 4 9 mph 1016.3mb - 69f
2:30am 7 11 mph 1016.4mb - 69f
2:20am 7 11 mph 1016.3mb - 69f
2:10am 7 9 mph 1016.6mb - 69f
1:10am 7 11 mph 1017mb - 68f
1:00am 9 11 mph 1017.2mb 78f 69f
12:50am 4 9 mph 1017.4mb - 68f
12:40am 7 11 mph 1017.4mb - 68f
12:30am 9 11 mph 1017.3mb - 68f
12:20am 9 11 mph 1017.6mb - 69f
12:10am 9 13 mph 1017.9mb - 68f
12:00am 7 9 mph 1018.2mb 78f 69f
Mon 09/15 11:50pm 7 11 mph 1018.3mb - 69f
11:40pm 7 9 mph 1018.5mb - 69f
11:30pm 7 9 mph 1018.8mb - 69f
11:20pm 7 9 mph 1018.9mb - 69f
11:10pm 7 9 mph 1018.9mb - 69f
11:00pm 7 9 mph 1019mb 78f 69f
10:50pm 4 7 mph 1019.2mb - 69f
10:40pm 7 9 mph 1019.3mb - 69f
10:30pm 7 9 mph 1019.3mb - 69f
10:20pm 4 7 mph 1019.3mb - 69f
10:10pm 7
mph
1019.1mb - 69f
10:00pm 4 9 mph 1019.1mb 78f 69f
9:50pm 7 9 mph 1019.1mb - 69f
9:40pm 7 9 mph 1019.1mb - 69f
9:30pm 7 11 mph 1019.1mb - 69f
9:20pm 7 9 mph 1019.2mb - 69f
9:10pm 9 11 mph 1019.1mb - 69f
9:00pm 9 11 mph 1019.3mb 78f 69f
8:50pm 7 9 mph 1019.5mb - 69f
8:40pm 7 9 mph 1019.5mb - 69f
8:30pm 7 9 mph 1019.5mb - 69f
8:20pm 7 11 mph 1019.5mb - 69f
8:10pm 7 9 mph 1019.4mb - 69f
8:00pm 7 9 mph 1019.3mb 78f 69f
7:50pm 7 11 mph 1019.2mb - 69f
7:40pm 7 11 mph 1019.2mb - 69f
7:30pm 7 11 mph 1019.3mb - 69f
7:20pm 9 13 mph 1019.2mb - 69f
7:10pm 9 11 mph 1019.2mb - 69f
7:00pm 9 11 mph 1019.3mb 78f 69f
6:50pm 9 11 mph 1019.4mb - 69f
6:40pm 9 11 mph 1019.4mb - 69f
6:30pm 9 11 mph 1019.4mb - 69f
6:20pm 9 11 mph 1019.5mb - 69f
6:10pm 9 11 mph 1019.5mb - 69f
6:00pm 9 11 mph 1019.6mb 78f 70f
5:50pm 9 11 mph 1019.7mb - 70f
5:40pm 9 11 mph 1019.6mb - 70f
5:30pm 9 11 mph 1019.6mb - 70f
5:20pm 7 11 mph 1019.6mb - 70f
5:10pm 9 11 mph 1019.6mb - 70f
5:00pm 7 11 mph 1019.7mb 78f 70f
4:50pm 9 11 mph 1019.7mb - 70f
4:40pm 7 11 mph 1019.7mb - 70f
4:30pm 9
mph
1019.8mb - 70f
4:20pm 7 11 mph 1019.9mb - 71f
4:10pm 7 9 mph 1019.9mb - 71f
4:00pm 7 9 mph 1020mb 78f 71f
3:50pm 7 9 mph 1020mb - 71f
3:40pm 7 9 mph 1020.1mb - 71f
3:30pm 4 9 mph 1020.2mb - 71f
3:20pm 4 7 mph 1020.1mb - 71f
3:10pm 7 9 mph 1020.1mb - 71f
3:00pm 7 11 mph 1020.3mb 78f 71f
2:50pm 7 9 mph 1020.3mb - 71f
2:40pm 7 11 mph 1020.4mb - 71f
2:30pm 7 11 mph 1020.5mb - 71f
2:20pm 7 9 mph 1020.7mb - 71f
2:10pm 4 9 mph 1020.8mb - 72f
2:00pm 4 9 mph 1021mb 79f 72f
1:50pm 4 9 mph 1021mb - 71f
1:40pm 7 9 mph 1021.1mb - 71f
1:30pm 4 7 mph 1021.2mb - 71f
1:20pm 4 9 mph 1021.3mb - 72f
1:10pm 2 7 mph 1021.4mb - 72f
1:00pm 4
mph
1021.6mb 79f 72f
12:50pm 4 7 mph 1021.6mb - 72f
12:40pm 4 7 mph 1021.6mb - 72f
12:30pm 2 7 mph 1021.6mb - 72f
12:20pm 4 7 mph 1021.7mb - 72f
12:10pm 4 11 mph 1021.8mb - 72f
12:00pm 4 7 mph 1021.8mb 79f 72f
11:50am 4 7 mph 1021.9mb - 72f
11:40am 2 7 mph 1022mb - 71f
11:30am 4 9 mph 1022.1mb - 71f
11:20am 4 9 mph 1022.3mb - 71f
11:10am 4 9 mph 1022.4mb - 71f
11:00am 4 9 mph 1022.5mb 79f 71f
10:50am 4 7 mph 1022.6mb - 71f
10:40am 4 7 mph 1022.7mb - 71f
10:30am 4 7 mph 1022.7mb - 71f
10:20am 2 7 mph 1022.7mb - 71f
10:10am  -  2 mph 1022.6mb - 71f
10:00am 2 7 mph 1022.7mb - 70f
9:20am 4 9 mph 1022.6mb - 70f
9:10am 7 9 mph 1022.5mb - 69f
9:00am 4 9 mph 1022.5mb 78f 69f
8:50am 4 9 mph 1022.4mb - 69f
8:40am 4 7 mph 1022.4mb - 69f
8:30am 4 7 mph 1022.5mb - 69f
8:20am 4 7 mph 1022.4mb - 68f
8:10am 4
mph
1022.5mb - 68f
8:00am 2 4 mph 1022.5mb 78f 68f
7:50am 4 7 mph 1022.5mb - 68f
7:40am 4 7 mph 1022.4mb - 68f
7:30am 4 7 mph 1022.3mb - 68f
7:20am 4 7 mph 1022.3mb - 68f
7:10am 4 7 mph 1022.3mb - 68f
7:00am 4 7 mph 1022.3mb 78f 68f
6:50am 4 7 mph 1022.1mb - 68f
6:40am 4 7 mph 1022.1mb - 68f
6:30am 4 7 mph 1022mb - 68f
6:20am 4 7 mph 1021.9mb - 68f
6:10am 4 7 mph 1021.9mb - 68f
6:00am 2 4 mph 1021.8mb 78f 67f
5:50am 2 4 mph 1021.8mb - 67f
5:40am 2 4 mph 1021.8mb - 67f
5:30am 2 4 mph 1021.8mb - 67f
5:20am 2 4 mph 1021.7mb - 67f
5:10am 2 4 mph 1021.6mb - 67f
5:00am 2 4 mph 1021.5mb 78f 66f
4:50am 2 4 mph 1021.5mb - 66f
4:40am 4
mph
1021.4mb - 65f
4:30am 2 4 mph 1021.4mb - 65f
4:20am 2 4 mph 1021.4mb - 66f
4:10am 4 7 mph 1021.4mb - 66f
4:00am 2 4 mph 1021.2mb 78f 66f
3:50am 2 4 mph 1021.2mb - 66f
3:40am 2 4 mph 1021.3mb - 65f
3:30am 2 4 mph 1021.3mb - 66f
3:20am 2 4 mph 1021.3mb - 66f
3:10am 2 4 mph 1021.3mb - 66f
3:00am 4
mph
1021.4mb 78f 65f
2:50am 2 7 mph 1021.5mb - 65f
2:40am 2 4 mph 1021.5mb - 66f
2:30am 2 4 mph 1021.6mb - 66f
2:20am 4 7 mph 1021.7mb - 66f
2:10am 2 7 mph 1021.7mb - 66f
2:00am 4 9 mph 1021.7mb 78f 66f
1:50am 4 7 mph 1021.8mb - 66f
1:40am 4 7 mph 1021.8mb - 66f
1:30am 4 7 mph 1021.7mb - 66f
1:20am 4 7 mph 1021.7mb - 66f
1:10am 4 7 mph 1021.7mb - 66f
1:00am 4 7 mph 1021.8mb 78f 66f
12:50am 4 7 mph 1021.7mb - 66f
12:40am 2 7 mph 1021.7mb - 67f
12:30am 2 4 mph 1021.8mb - 68f
12:20am 2 4 mph 1021.8mb - 68f
12:10am 2 4 mph 1021.8mb - 68f
12:00am 2 4 mph 1021.9mb 78f 68f
Sun 09/14 11:50pm 2 4 mph 1021.9mb - 68f
11:40pm 2 4 mph 1022mb - 68f
11:30pm  -  4 mph 1022.1mb - 67f
11:20pm 2 4 mph 1022.1mb - 68f
11:10pm 4 7 mph 1022.1mb - 68f
11:00pm 4 7 mph 1022.2mb 78f 68f
10:50pm 4 7 mph 1022.2mb - 68f
10:40pm 2 7 mph 1022.3mb - 68f
10:30pm 4
mph
1022.4mb - 68f
10:20pm 4
mph
1022.4mb - 68f
10:10pm 4
mph
1022.4mb - 68f
10:00pm 4 7 mph 1022.4mb 79f 68f
9:50pm 4
mph
1022.4mb - 68f
9:40pm 4 7 mph 1022.5mb - 68f
9:30pm 2 4 mph 1022.6mb - 68f
9:20pm 4 7 mph 1022.5mb - 67f
9:10pm 4 7 mph 1022.4mb - 67f
9:00pm 4 7 mph 1022.3mb 78f 68f
8:50pm 4 7 mph 1022.3mb - 68f
8:40pm 4 9 mph 1022.1mb - 68f
8:30pm 7 9 mph 1022mb - 68f
8:20pm 4 7 mph 1021.9mb - 68f
8:10pm 7 9 mph 1021.9mb - 68f
8:00pm 7 9 mph 1021.9mb 78f 68f
7:50pm 7 9 mph 1021.8mb - 68f
7:40pm 4 9 mph 1021.8mb - 68f
7:30pm 4 9 mph 1021.8mb - 68f
7:20pm 4 9 mph 1021.9mb - 68f
7:10pm 7 9 mph 1021.9mb - 68f
7:00pm 7
mph
1022mb 79f 68f
6:50pm 7 9 mph 1022.1mb - 68f
6:40pm 7 9 mph 1022.1mb - 68f
6:30pm 7 9 mph 1022mb - 68f
6:20pm 7 9 mph 1022mb - 68f
6:10pm 4 9 mph 1022mb - 68f
6:00pm 7 9 mph 1022mb 79f 68f
5:50pm 7 9 mph 1022mb - 68f
5:40pm 7 11 mph 1022mb - 68f
5:30pm 7 11 mph 1022mb - 69f
5:20pm 9 11 mph 1022mb - 69f
5:10pm 9 11 mph 1022.1mb - 69f
5:00pm 9 11 mph 1022mb 79f 69f
4:50pm 9 13 mph 1022mb - 69f
4:40pm 7 13 mph 1022mb - 69f
4:30pm 9 13 mph 1022.1mb - 69f
4:20pm 9 13 mph 1022.1mb - 69f
4:10pm 9 11 mph 1022.1mb - 69f
4:00pm 9 13 mph 1022.2mb 80f 69f
3:50pm 7 11 mph 1022.3mb - 69f
3:40pm 9 13 mph 1022.4mb - 69f
3:30pm 9 16 mph 1022.4mb - 69f
3:20pm 9 13 mph 1022.5mb - 69f
3:10pm 9 13 mph 1022.5mb - 69f
3:00pm 7 13 mph 1022.6mb 79f 69f
2:50pm 9 16 mph 1022.6mb - 69f
2:40pm 9 13 mph 1022.7mb - 69f
2:30pm 9 13 mph 1022.8mb - 69f
2:20pm 9 13 mph 1022.8mb - 69f
2:10pm 9 11 mph 1023mb - 69f
2:00pm 9 11 mph 1023mb 79f 69f
1:50pm 7 13 mph 1023.1mb - 69f
1:40pm 9 16 mph 1023.2mb - 69f
1:30pm 9 13 mph 1023.3mb - 69f
1:20pm 9 13 mph 1023.3mb - 69f
1:10pm 9 16 mph 1023.4mb - 68f
1:00pm 9 13 mph 1023.4mb 79f 68f
12:50pm 11 16 mph 1023.5mb - 68f
12:40pm 9 16 mph 1023.5mb - 68f
12:30pm 9 16 mph 1023.5mb - 68f
12:20pm 9 13 mph 1023.7mb - 68f
12:10pm 11 16 mph 1023.8mb - 68f
12:00pm 9 16 mph 1023.8mb 79f 68f
11:50am 11 16 mph 1023.9mb - 68f
11:40am 11 18 mph 1024mb - 68f
11:30am 11 18 mph 1024mb - 68f
11:20am 9 16 mph 1024mb - 68f
11:10am 9 16 mph 1024mb - 68f
11:00am 9 16 mph 1024mb 78f 68f
10:50am 11 16 mph 1024.2mb - 67f
10:40am 11 16 mph 1024.3mb - 67f
10:30am 11 16 mph 1024.3mb - 67f
10:20am 13 18 mph 1024.1mb - 67f
10:10am 11 20 mph 1024.2mb - 67f
10:00am 13 18 mph 1024.2mb 78f 67f
9:50am 13 18 mph 1024.1mb - 67f
9:40am 11 18 mph 1024mb - 67f
9:30am 13 20 mph 1023.9mb - 67f
9:20am 13 20 mph 1023.8mb - 67f
9:10am 13 18 mph 1023.6mb - 67f
9:00am 13 20 mph 1023.7mb 78f 67f
8:50am 11 20 mph 1023.6mb - 68f
8:40am 13 22 mph 1023.6mb - 68f
8:30am 13 18 mph 1023.6mb - 68f
8:20am 11 20 mph 1023.6mb - 68f
8:10am 13 22 mph 1023.6mb - 67f
8:00am 11 16 mph 1023.5mb 78f 67f
7:50am 11 18 mph 1023.4mb - 67f
7:40am 11 18 mph 1023.3mb - 67f
7:30am 13 20 mph 1023.2mb - 67f
7:20am 13 20 mph 1023.1mb - 67f
7:10am 13 18 mph 1023mb - 67f
7:00am 11 16 mph 1022.8mb 78f 67f
6:50am 11 18 mph 1022.7mb - 67f
6:40am 11 18 mph 1022.5mb - 67f
6:30am 11 16 mph 1022.4mb - 67f
6:20am 11 18 mph 1022.3mb - 67f
6:10am 11 18 mph 1022.1mb - 68f
6:00am 9 16 mph 1022.1mb 78f 68f
5:50am 11 18 mph 1022mb - 68f
5:40am 9 16 mph 1021.9mb - 68f
5:30am 11 16 mph 1021.7mb - 69f
5:20am 11 16 mph 1021.6mb - 69f
5:10am 11 16 mph 1021.5mb - 69f
5:00am 9 16 mph 1021.4mb 78f 69f
4:50am 9 13 mph 1021.3mb - 69f
4:40am 11 18 mph 1021.2mb - 69f
4:30am 9 13 mph 1021.1mb - 69f
4:20am 11 18 mph 1021mb - 69f
4:10am 11 18 mph 1021mb - 69f
4:00am 11 18 mph 1020.8mb 78f 70f
3:50am 11 16 mph 1020.7mb - 69f
3:40am 9 16 mph 1020.8mb - 69f
3:30am 9 11 mph 1020.7mb - 69f
3:20am 11 16 mph 1020.7mb - 69f
3:10am 9 11 mph 1020.6mb - 69f
3:00am 9 11 mph 1020.6mb 78f 69f
2:50am 9 13 mph 1020.6mb - 69f
2:40am 11 13 mph 1020.6mb - 69f
2:30am 11 16 mph 1020.5mb - 69f
2:20am 11 16 mph 1020.5mb - 69f
2:10am 13 18 mph 1020.4mb - 69f
2:00am 11 18 mph 1020.4mb 78f 69f
1:50am 11 16 mph 1020.4mb - 69f
1:40am 11 18 mph 1020.4mb - 69f
1:30am 13 18 mph 1020.4mb - 69f
1:20am 13 18 mph 1020.5mb - 69f
1:10am 13 18 mph 1020.6mb - 69f
1:00am 13 16 mph 1020.6mb 78f 69f
12:50am 13 18 mph 1020.6mb - 69f
12:40am 11 16 mph 1020.7mb - 69f
12:30am 11 16 mph 1020.7mb - 69f
12:20am 11 18 mph 1020.7mb - 69f
12:10am 13 18 mph 1020.8mb - 69f
12:00am 11 16 mph 1020.9mb 78f 69f
Sat 09/13 11:50pm 11 16 mph 1020.9mb - 69f
11:40pm 11 16 mph 1021mb - 69f
11:30pm 13 16 mph 1021mb - 69f
11:20pm 13 16 mph 1020.9mb - 69f
11:10pm 13 18 mph 1020.8mb - 69f
11:00pm 13 18 mph 1020.7mb 79f 69f
10:50pm 13 20 mph 1020.6mb - 69f
10:40pm 13 20 mph 1020.6mb - 68f
10:30pm 16 22 mph 1020.7mb - 69f
10:20pm 16 20 mph 1020.7mb - 69f
10:10pm 16 20 mph 1020.6mb - 69f
10:00pm 16 22 mph 1020.5mb 79f 69f
9:50pm 18 22 mph 1020.4mb - 69f